Temperature
16 16 16 15 15 15 15 15 15 15 14 13 13 13 13 13 13 13 13 13 13 13 13 13 13 13 13 13 13 13 13 13 12 12 12 12 12 12
15 16 15 15 15 15 15 15 15 15 14 13 13 13 13 13 13 13 13 13 13 13 13 13 12 12 12 12 12 12 12 12 12 12 12 12 12 12
15 15 15 15 15 15 15 15 14 14 14 13 13 12 12 12 12 12 12 12 12 12 12 12 12 12 12 12 12 12 12 12 12 11 11 11 11 11
15 15 15 15 15 14 14 14 14 14 14 13 12 12 12 12 12 11 11 11 11 11 11 11 11 11 11 11 11 11 11 11 11 11 11 11 11 10
15 14 14 14 14 14 14 14 14 14 13 13 12 12 12 11 11 11 11 11 11 11 11 11 11 11 11 11 11 11 10 11 10 10 10 10 10 10
14 14 14 14 14 14 14 14 13 13 13 13 12 12 12 11 11 11 11 11 11 11 10 10 10 10 10 10 10 10 10 10 10 10 10 9 9 9
14 14 14 14 14 14 13 13 13 13 13 13 12 12 12 11 11 11 11 11 11 11 10 10 10 10 10 10 10 9 9 9 9 9 9 9 9 9
14 13 13 14 14 13 13 13 13 13 12 12 12 12 11 11 11 11 11 11 11 10 10 10 10 10 10 9 9 9 9 9 9 9 9 9 8 8
13 13 13 13 13 13 13 13 12 12 12 12 12 11 11 11 11 11 11 11 11 10 10 10 10 10 10 9 9 9 9 9 8 8 8 8 8 8
13 13 13 13 13 12 12 12 12 12 12 11 11 11 11 11 11 10 11 11 10 10 10 10 10 10 10 9 9 9 9 8 8 8 8 8 8 8
13 12 12 13 12 12 12 12 11 11 11 11 11 11 11 11 11 10 11 11 11 11 10 10 10 10 10 9 9 9 8 8 8 8 8 8 8 7
12 12 12 12 12 12 11 11 11 11 11 11 11 10 10 10 10 10 10 11 11 11 10 10 10 10 10 9 9 9 8 8 8 8 8 8 7 7
12 12 12 12 12 12 11 11 11 11 11 11 11 10 10 10 10 10 10 10 10 10 10 9 10 10 10 9 9 9 8 8 8 8 8 8 7 7
12 11 11 11 11 11 11 11 11 11 11 11 11 11 11 10 10 10 9 9 9 9 9 9 9 9 9 9 9 9 9 8 8 8 8 8 7 7
11 11 11 11 11 11 11 11 11 11 11 11 11 11 10 10 10 10 9 9 9 9 9 8 8 8 8 9 9 9 8 8 8 8 8 7 7 7
11 11 11 11 11 10 10 10 10 10 10 11 11 10 10 10 10 10 10 10 9 9 9 8 8 8 8 8 8 8 8 8 8 8 7 7 7 7
11 11 11 11 11 11 10 10 10 10 10 10 10 10 10 10 10 10 9 10 10 9 9 9 8 8 8 8 8 8 8 8 8 7 7 7 7 7
11 11 11 11 11 11 11 10 10 10 10 10 10 10 10 10 10 10 9 9 9 9 9 9 8 8 8 8 8 8 8 8 8 7 7 7 7 7
11 11 11 11 10 10 10 10 10 10 9 10 10 10 10 10 10 9 9 9 9 9 9 8 8 8 8 9 8 8 7 7 7 7 7 7 7 7
11 10 10 10 10 10 10 10 10 10 9 9 9 9 9 9 9 9 9 9 9 9 8 8 8 8 8 8 8 8 7 7 7 7 7 7 7 6
10 10 10 10 10 10 9 9 9 9 9 9 9 9 9 9 9 9 9 8 8 8 8 8 8 7 7 7 8 8 8 7 7 6 6 7 7 7
10 10 10 10 9 9 9 9 9 9 8 8 8 8 8 8 8 8 8 8 8 8 8 8 7 7 7 7 8 8 8 7 7 6 6 6 6 6
10 10 9 9 9 9 9 9 9 8 8 8 8 8 8 8 8 8 8 8 8 8 8 7 7 7 7 7 7 8 7 7 7 7 6 6 6 5
Wind_Speed
2 1 1 1 1 2 3 3 3 2 1 1 0 1 3 4 4 5 6 7 7 7 7 7 6 6 6 5 5 5 5 4 4 4 4 4 3 2
2 2 2 1 0 1 2 2 2 2 1 1 1 2 3 4 5 5 7 9 9 8 8 8 8 7 7 6 5 5 5 4 5 5 4 4 5 4
2 2 2 2 1 1 1 1 1 1 2 2 2 3 3 3 4 5 6 6 9 10 9 9 8 8 8 7 7 6 5 5 5 5 5 5 5 6
4 4 3 2 3 2 1 2 2 2 3 4 4 3 3 4 4 3 5 6 7 10 10 10 10 9 9 8 7 6 6 5 5 5 6 6 6 7
5 5 4 4 3 3 2 3 3 4 4 5 4 3 3 3 3 3 4 3 5 8 8 8 8 9 9 8 8 7 6 6 6 6 6 6 6 7
6 6 5 5 4 4 3 4 4 4 5 5 5 4 3 2 2 2 2 2 3 4 5 6 7 7 7 7 7 7 7 6 6 5 5 5 5 6
7 7 8 8 9 6 4 4 4 3 4 4 4 4 3 2 1 1 2 2 3 2 3 3 4 4 4 5 5 5 5 5 5 4 4 3 4 4
6 6 7 7 9 10 10 9 7 3 3 3 3 3 2 1 1 1 2 1 2 1 1 2 2 2 2 4 6 4 3 3 2 2 2 1 1 1
5 5 5 6 6 7 7 7 8 8 6 3 3 3 2 1 0 1 1 1 2 2 0 1 1 1 1 4 7 5 3 1 0 0 0 1 1 2
5 5 5 5 5 4 6 6 6 5 4 4 4 3 3 2 1 0 1 2 2 2 1 2 0 1 1 3 8 6 4 3 3 3 3 3 4 5
5 5 5 5 6 4 4 5 5 4 6 7 6 5 6 5 3 1 0 1 1 1 0 2 1 1 1 2 5 8 6 6 5 5 5 5 6 7
5 5 7 6 5 5 3 4 3 3 3 4 4 3 3 3 1 2 2 2 1 0 1 2 2 2 1 1 1 3 4 7 8 8 7 7 7 7
4 4 5 6 5 4 3 3 1 1 2 2 3 2 2 2 2 1 1 3 3 2 1 2 3 3 2 2 1 1 2 3 4 6 8 9 8 7
2 3 5 6 4 2 2 2 2 5 1 1 1 1 1 1 1 1 0 1 2 3 3 3 3 3 4 4 3 2 2 3 4 4 4 6 9 11
2 5 5 6 6 4 3 2 3 2 1 1 1 1 0 1 0 1 2 3 3 2 1 2 4 4 4 5 4 4 4 3 3 4 5 4 4 5
4 5 7 5 4 2 4 4 2 1 2 1 1 0 0 1 1 1 2 1 2 1 2 2 3 4 5 5 5 5 5 4 4 4 5 5 5 5
4 5 5 4 4 3 2 2 2 2 2 1 2 2 2 2 1 2 2 2 2 2 1 1 3 5 5 6 6 5 5 5 5 4 5 6 5 4
3 4 3 3 3 3 3 3 3 3 2 2 2 2 2 2 2 2 2 3 3 3 3 3 3 3 4 3 3 6 6 6 5 4 6 6 6 4
5 4 3 3 3 3 3 3 3 3 3 3 3 2 3 3 3 3 3 3 3 3 4 4 4 4 6 6 3 4 6 6 6 5 5 6 6 5
5 4 4 4 4 3 3 3 3 3 4 4 3 3 3 3 3 3 3 3 4 4 4 4 4 5 6 7 7 5 5 6 6 6 6 6 6 4
5 5 5 4 4 4 4 3 3 3 3 3 3 3 3 3 3 4 3 2 4 4 5 5 4 5 7 7 7 6 4 5 5 6 7 7 7 6
4 4 4 4 3 3 3 3 3 4 3 4 3 3 3 4 4 4 4 4 4 5 6 6 5 5 6 7 8 8 6 4 6 9 9 8 7 8
4 4 3 4 4 4 3 4 4 4 4 4 4 4 4 3 4 4 4 5 5 5 6 6 5 6 7 7 8 7 8 7 6 5 5 9 11 12
Wind_Direction
337 331 305 281 226 209 203 207 214 220 222 158 81 67 83 69 62 74 78 78 85 89 90 92 93 92 91 90 91 91 87 85 77 67 53 43 31 25
7 10 348 348 80 157 205 224 230 211 203 130 96 91 83 94 77 78 87 95 83 83 85 84 83 81 80 81 83 82 78 76 76 70 61 52 45 45
18 36 37 27 51 69 156 174 150 137 146 136 116 94 86 84 92 89 92 92 86 82 84 84 84 83 81 80 78 76 73 74 76 73 64 53 43 43
39 46 48 57 69 68 71 79 93 109 142 138 126 116 106 100 93 88 93 88 92 88 86 85 86 83 79 75 72 69 68 69 69 67 61 57 55 54
53 53 51 58 57 64 73 82 96 107 118 127 119 112 107 100 111 97 91 92 105 110 108 102 96 89 83 77 72 72 73 74 72 68 65 62 61 58
58 54 52 54 56 62 75 80 92 108 116 121 120 119 113 120 130 129 121 113 99 104 104 109 114 110 97 88 81 77 76 76 75 71 67 64 60 57
69 64 62 58 46 42 61 80 98 111 119 119 121 121 108 112 115 127 117 128 115 102 120 124 130 122 117 111 96 83 76 75 70 70 71 66 61 56
78 77 83 76 72 64 57 55 51 76 97 110 113 108 109 104 68 98 121 119 108 95 143 108 103 103 113 100 104 98 91 87 80 75 72 66 49 40
77 75 77 81 89 92 90 91 71 50 41 60 93 92 106 101 106 109 74 57 57 69 294 106 113 112 138 108 127 136 143 160 186 258 278 287 277 271
79 79 80 80 72 83 101 96 92 80 67 74 78 75 78 67 285 273 194 169 151 88 339 307 355 267 189 139 153 168 188 211 226 237 246 261 272 269
83 76 82 91 51 14 103 103 100 107 97 81 68 78 73 61 2 320 353 221 166 109 3 297 309 263 209 174 167 182 202 221 231 238 247 256 264 267
110 97 71 66 55 10 106 114 115 108 113 122 126 140 136 129 123 323 325 313 304 359 60 297 298 299 277 189 165 190 214 217 223 231 238 246 259 270
130 119 100 89 74 33 20 85 65 295 153 148 141 136 138 137 146 152 323 322 321 339 26 296 303 307 302 299 279 272 273 261 239 235 230 232 243 260
131 120 112 120 107 69 64 55 298 274 190 149 132 116 118 115 111 126 164 311 330 332 342 319 303 311 303 299 296 291 287 280 279 282 272 225 231 239
109 83 115 162 175 157 154 241 248 231 214 203 153 113 107 71 290 202 200 208 223 244 283 300 300 305 294 297 304 306 302 295 282 292 290 279 265 254
172 162 179 197 210 177 185 202 216 270 293 279 263 263 227 191 235 280 270 232 240 218 191 228 268 290 292 297 294 297 296 296 299 298 300 294 284 273
191 198 200 194 197 191 196 207 219 210 227 267 272 255 251 255 265 276 283 278 273 283 285 251 244 256 269 283 293 296 293 293 295 303 292 288 288 283
226 215 214 218 225 220 215 211 218 232 241 249 264 275 274 270 272 275 274 278 285 292 300 300 293 285 275 254 264 292 294 298 300 295 293 295 298 297
223 227 225 231 239 239 236 234 231 224 241 246 253 264 270 272 274 273 274 282 286 292 301 299 297 295 295 299 280 253 295 303 303 302 296 292 295 302
227 230 230 232 238 244 246 246 243 233 229 240 248 258 268 274 276 280 282 296 295 299 301 303 301 302 299 302 303 290 246 282 301 303 303 298 294 287
219 226 235 238 239 238 243 247 252 255 256 256 257 270 275 278 282 285 285 270 284 292 294 293 295 269 276 284 286 289 285 225 246 286 300 299 298 293
231 234 237 241 238 240 235 236 235 235 236 246 259 265 267 270 269 273 287 288 283 286 290 292 289 279 279 283 289 295 296 284 237 228 247 268 290 296
226 231 232 231 228 229 230 230 234 236 240 250 253 258 266 268 275 279 282 284 289 293 294 295 295 288 285 284 289 295 299 296 290 274 252 231 236 247
Height
1546 1545 1545 1545 1545 1545 1546 1547 1548 1548 1549 1550 1549 1549 1549 1548 1547 1547 1546 1545 1545 1544 1544 1544 1544 1544 1544 1544 1544 1544 1544 1544 1544 1544 1543 1543 1543 1542
1544 1544 1544 1544 1544 1544 1544 1545 1546 1546 1547 1548 1548 1548 1548 1548 1547 1546 1546 1545 1545 1544 1544 1543 1543 1543 1543 1543 1543 1543 1543 1543 1543 1542 1542 1541 1541 1540
1544 1543 1543 1542 1543 1543 1543 1544 1544 1545 1545 1546 1547 1547 1547 1547 1546 1546 1546 1545 1545 1544 1544 1543 1542 1542 1542 1542 1542 1542 1542 1541 1541 1541 1540 1540 1539 1538
1544 1543 1543 1542 1542 1542 1543 1543 1543 1544 1544 1545 1546 1546 1546 1546 1546 1546 1547 1546 1545 1544 1543 1543 1542 1542 1542 1541 1541 1541 1541 1540 1540 1539 1539 1538 1537 1537
1544 1543 1543 1542 1542 1542 1543 1543 1543 1544 1544 1545 1545 1545 1546 1546 1546 1546 1547 1546 1546 1545 1544 1543 1543 1542 1541 1541 1541 1540 1539 1539 1539 1538 1538 1537 1536 1535
1544 1544 1543 1543 1543 1543 1543 1543 1543 1544 1544 1545 1545 1546 1546 1546 1546 1547 1547 1547 1547 1546 1545 1544 1543 1542 1542 1541 1540 1539 1539 1538 1537 1537 1536 1535 1535 1534
1545 1544 1544 1544 1543 1543 1544 1544 1544 1545 1545 1545 1546 1546 1546 1546 1547 1547 1547 1547 1546 1546 1546 1545 1544 1543 1542 1541 1540 1540 1539 1538 1537 1536 1536 1535 1534 1533
1546 1546 1545 1545 1545 1544 1544 1544 1544 1545 1546 1546 1546 1546 1546 1546 1546 1547 1547 1547 1547 1546 1546 1546 1545 1544 1543 1542 1540 1540 1539 1538 1537 1536 1535 1534 1533 1532
1547 1547 1547 1547 1546 1546 1545 1545 1545 1545 1546 1547 1547 1547 1546 1546 1546 1546 1546 1546 1546 1546 1546 1546 1545 1544 1544 1542 1540 1539 1538 1537 1537 1536 1535 1534 1533 1531
1548 1548 1548 1547 1548 1547 1547 1547 1547 1546 1547 1547 1547 1547 1547 1546 1546 1546 1546 1546 1546 1546 1545 1546 1545 1544 1543 1542 1540 1539 1538 1537 1536 1534 1533 1532 1531 1530
1549 1549 1549 1548 1548 1548 1548 1548 1548 1548 1548 1547 1547 1547 1546 1546 1546 1547 1547 1547 1546 1546 1545 1545 1544 1543 1542 1541 1539 1538 1537 1535 1534 1533 1532 1531 1529 1528
1550 1550 1549 1549 1549 1548 1549 1549 1549 1549 1549 1548 1548 1547 1547 1546 1546 1545 1546 1546 1546 1545 1544 1543 1543 1542 1541 1540 1539 1537 1536 1534 1533 1531 1530 1529 1527 1526
1551 1551 1550 1549 1549 1549 1549 1549 1549 1549 1549 1549 1548 1548 1547 1546 1546 1545 1545 1545 1545 1545 1543 1542 1542 1541 1540 1539 1538 1536 1535 1533 1532 1530 1528 1527 1525 1524
1551 1551 1550 1549 1549 1549 1549 1548 1548 1549 1550 1549 1549 1548 1548 1547 1546 1545 1544 1543 1543 1543 1541 1541 1540 1539 1539 1537 1536 1534 1533 1532 1530 1529 1527 1525 1523 1522
1549 1549 1549 1549 1549 1549 1549 1548 1548 1549 1549 1549 1549 1548 1547 1546 1545 1544 1543 1542 1541 1541 1540 1539 1539 1538 1537 1536 1534 1533 1531 1530 1528 1526 1525 1523 1522 1520
1548 1548 1548 1548 1548 1548 1548 1548 1548 1548 1548 1548 1548 1547 1546 1545 1544 1544 1543 1542 1541 1540 1538 1537 1536 1535 1535 1534 1532 1531 1529 1528 1526 1524 1522 1521 1519 1518
1547 1547 1548 1548 1547 1547 1547 1547 1547 1546 1546 1546 1546 1545 1545 1544 1543 1542 1541 1541 1540 1539 1538 1536 1534 1533 1532 1531 1530 1528 1527 1525 1524 1522 1520 1518 1517 1515
1545 1546 1546 1546 1546 1545 1545 1545 1545 1544 1544 1544 1544 1543 1543 1542 1542 1541 1540 1539 1538 1537 1536 1534 1533 1532 1531 1529 1528 1526 1524 1523 1521 1519 1517 1516 1514 1512
1542 1543 1543 1543 1543 1543 1543 1542 1542 1541 1541 1541 1541 1540 1540 1540 1539 1538 1538 1537 1536 1535 1534 1532 1531 1529 1528 1526 1524 1523 1522 1520 1518 1516 1515 1513 1511 1509
1539 1540 1540 1540 1540 1540 1540 1539 1539 1539 1538 1538 1538 1537 1537 1537 1536 1536 1535 1534 1533 1532 1531 1530 1529 1527 1525 1524 1522 1520 1518 1517 1516 1514 1512 1510 1508 1506
1536 1536 1537 1537 1537 1536 1536 1536 1536 1535 1535 1535 1534 1534 1534 1533 1533 1533 1532 1531 1530 1529 1528 1527 1525 1524 1522 1521 1519 1517 1516 1513 1512 1511 1509 1507 1505 1503
1532 1533 1533 1533 1532 1532 1532 1532 1532 1532 1531 1531 1531 1531 1531 1530 1530 1529 1529 1528 1527 1526 1525 1524 1522 1521 1520 1518 1516 1514 1512 1510 1508 1506 1505 1504 1502 1500
1529 1529 1529 1529 1529 1528 1528 1528 1528 1528 1528 1528 1528 1528 1527 1527 1526 1526 1526 1525 1524 1523 1522 1520 1519 1517 1516 1514 1512 1510 1509 1507 1505 1504 1502 1499 1498 1497